Time,TemperatureF,DewpointF,PressureIn,WindDirection,WindDirectionDegrees,WindSpeedMPH,WindSpeedGustMPH,Humidity,HourlyPrecipIn,Conditions,Clouds,dailyrainin,SoftwareType,DateUTC
2013-09-20 00:00:00,73.5,38.4,29.66,North,355,2.0,4.0,28,0.00,,,0.00,VWS V14.01,2013-09-20 07:00:00,
2013-09-20 00:05:00,73.2,38.2,29.66,NE,34,2.0,4.0,28,0.00,,,0.00,VWS V14.01,2013-09-20 07:05:00,
2013-09-20 00:10:00,72.9,38.8,29.66,NNE,22,3.0,5.0,29,0.00,,,0.00,VWS V14.01,2013-09-20 07:10:00,
2013-09-20 00:15:00,73.9,38.8,29.66,North,5,2.0,5.0,28,0.00,,,0.00,VWS V14.01,2013-09-20 07:15:00,
2013-09-20 00:20:00,74.3,38.2,29.66,North,5,4.0,5.0,27,0.00,,,0.00,VWS V14.01,2013-09-20 07:20:00,
2013-09-20 00:25:00,74.4,38.3,29.66,North,5,4.0,5.0,27,0.00,,,0.00,VWS V14.01,2013-09-20 07:25:00,
2013-09-20 00:30:00,74.3,39.1,29.66,North,355,4.0,6.0,28,0.00,,,0.00,VWS V14.01,2013-09-20 07:30:00,
2013-09-20 00:35:00,75.3,40.0,29.66,North,5,3.0,6.0,28,0.00,,,0.00,VWS V14.01,2013-09-20 07:35:00,
2013-09-20 00:40:00,75.7,40.3,29.66,North,360,5.0,5.0,28,0.00,,,0.00,VWS V14.01,2013-09-20 07:40:00,
2013-09-20 00:45:00,75.8,40.4,29.66,North,360,4.0,4.0,28,0.00,,,0.00,VWS V14.01,2013-09-20 07:45:00,
2013-09-20 00:50:00,75.3,40.0,29.66,NNW,346,2.0,5.0,28,0.00,,,0.00,VWS V14.01,2013-09-20 07:50:00,
2013-09-20 00:55:00,75.5,41.0,29.66,North,355,0.0,4.0,29,0.00,,,0.00,VWS V14.01,2013-09-20 07:55:00,
2013-09-20 01:00:00,75.2,40.8,29.66,North,355,0.0,1.0,29,0.00,,,0.00,VWS V14.01,2013-09-20 08:00:00,
2013-09-20 01:05:00,74.0,40.6,29.66,North,355,0.0,0.0,30,0.00,,,0.00,VWS V14.01,2013-09-20 08:05:00,
2013-09-20 01:10:00,74.0,40.6,29.66,North,355,0.0,1.0,30,0.00,,,0.00,VWS V14.01,2013-09-20 08:10:00,
2013-09-20 01:15:00,73.9,40.5,29.66,North,355,0.0,1.0,30,0.00,,,0.00,VWS V14.01,2013-09-20 08:15:00,
2013-09-20 01:20:00,73.4,41.8,29.66,North,355,0.0,0.0,32,0.00,,,0.00,VWS V14.01,2013-09-20 08:20:00,
2013-09-20 01:25:00,74.1,41.6,29.66,North,355,2.0,2.0,31,0.00,,,0.00,VWS V14.01,2013-09-20 08:25:00,
2013-09-20 01:30:00,74.7,41.2,29.66,North,355,1.0,3.0,30,0.00,,,0.00,VWS V14.01,2013-09-20 08:30:00,
2013-09-20 01:35:00,74.6,41.2,29.66,North,355,1.0,2.0,30,0.00,,,0.00,VWS V14.01,2013-09-20 08:35:00,
2013-09-20 01:40:00,73.8,40.5,29.66,North,355,0.0,2.0,30,0.00,,,0.00,VWS V14.01,2013-09-20 08:40:00,
2013-09-20 01:45:00,73.3,40.9,29.65,North,355,0.0,1.0,31,0.00,,,0.00,VWS V14.01,2013-09-20 08:45:00,
2013-09-20 01:50:00,73.4,41.0,29.66,North,355,0.0,1.0,31,0.00,,,0.00,VWS V14.01,2013-09-20 08:50:00,
2013-09-20 01:55:00,71.9,41.3,29.66,North,355,0.0,1.0,33,0.00,,,0.00,VWS V14.01,2013-09-20 08:55:00,
2013-09-20 02:00:00,72.2,40.7,29.65,North,355,2.0,2.0,32,0.00,,,0.00,VWS V14.01,2013-09-20 09:00:00,
2013-09-20 02:05:00,72.6,41.1,29.65,North,355,0.0,3.0,32,0.00,,,0.00,VWS V14.01,2013-09-20 09:05:00,
2013-09-20 02:10:00,72.7,41.2,29.66,North,355,2.0,2.0,32,0.00,,,0.00,VWS V14.01,2013-09-20 09:10:00,
2013-09-20 02:15:00,72.1,40.7,29.65,NE,37,0.0,2.0,32,0.00,,,0.00,VWS V14.01,2013-09-20 09:15:00,
2013-09-20 02:20:00,71.4,40.8,29.66,NE,37,1.0,2.0,33,0.00,,,0.00,VWS V14.01,2013-09-20 09:20:00,
2013-09-20 02:25:00,71.5,40.9,29.65,NE,37,1.0,2.0,33,0.00,,,0.00,VWS V14.01,2013-09-20 09:25:00,
2013-09-20 02:30:00,71.8,41.2,29.66,NE,37,0.0,1.0,33,0.00,,,0.00,VWS V14.01,2013-09-20 09:30:00,
2013-09-20 02:35:00,71.3,41.5,29.66,NE,37,0.0,2.0,34,0.00,,,0.00,VWS V14.01,2013-09-20 09:35:00,
2013-09-20 02:40:00,71.5,40.9,29.66,NE,37,0.0,0.0,33,0.00,,,0.00,VWS V14.01,2013-09-20 09:40:00,
2013-09-20 02:45:00,71.8,40.4,29.66,NE,37,1.0,1.0,32,0.00,,,0.00,VWS V14.01,2013-09-20 09:45:00,
2013-09-20 02:50:00,72.4,40.9,29.66,NE,37,0.0,1.0,32,0.00,,,0.00,VWS V14.01,2013-09-20 09:50:00,
2013-09-20 02:55:00,72.7,40.3,29.66,NE,37,0.0,1.0,31,0.00,,,0.00,VWS V14.01,2013-09-20 09:55:00,
2013-09-20 03:00:00,72.7,41.2,29.66,NE,37,0.0,0.0,32,0.00,,,0.00,VWS V14.01,2013-09-20 10:00:00,
2013-09-20 03:05:00,72.2,40.7,29.66,NE,37,0.0,1.0,32,0.00,,,0.00,VWS V14.01,2013-09-20 10:05:00,
2013-09-20 03:10:00,72.4,40.9,29.66,NE,37,0.0,0.0,32,0.00,,,0.00,VWS V14.01,2013-09-20 10:10:00,
2013-09-20 03:15:00,72.9,41.3,29.66,NE,37,0.0,1.0,32,0.00,,,0.00,VWS V14.01,2013-09-20 10:15:00,
2013-09-20 03:20:00,73.4,41.0,29.66,NE,37,1.0,1.0,31,0.00,,,0.00,VWS V14.01,2013-09-20 10:20:00,
2013-09-20 03:25:00,73.1,41.5,29.66,NE,37,0.0,2.0,32,0.00,,,0.00,VWS V14.01,2013-09-20 10:25:00,
2013-09-20 03:30:00,72.6,41.1,29.66,NE,37,0.0,0.0,32,0.00,,,0.00,VWS V14.01,2013-09-20 10:30:00,
2013-09-20 03:35:00,72.4,41.7,29.66,NE,37,0.0,1.0,33,0.00,,,0.00,VWS V14.01,2013-09-20 10:35:00,
2013-09-20 03:40:00,71.7,41.9,29.66,NE,37,0.0,1.0,34,0.00,,,0.00,VWS V14.01,2013-09-20 10:40:00,
2013-09-20 03:45:00,71.5,41.7,29.66,NE,37,0.0,3.0,34,0.00,,,0.00,VWS V14.01,2013-09-20 10:45:00,
2013-09-20 03:50:00,70.6,40.9,29.66,NNE,32,3.0,3.0,34,0.00,,,0.00,VWS V14.01,2013-09-20 10:50:00,
2013-09-20 03:55:00,70.5,40.8,29.66,NNE,32,2.0,4.0,34,0.00,,,0.00,VWS V14.01,2013-09-20 10:55:00,
2013-09-20 04:00:00,70.0,41.8,29.66,NNE,32,0.0,2.0,36,0.00,,,0.00,VWS V14.01,2013-09-20 11:00:00,
2013-09-20 04:05:00,69.4,41.3,29.67,NNE,32,0.0,1.0,36,0.00,,,0.00,VWS V14.01,2013-09-20 11:05:00,
2013-09-20 04:10:00,68.9,41.6,29.67,NNE,32,0.0,1.0,37,0.00,,,0.00,VWS V14.01,2013-09-20 11:10:00,
2013-09-20 04:11:00,68.8,41.5,29.67,NNE,32,0.0,0.0,37,0.00,,,0.00,VWS V14.01,2013-09-20 11:11:00,
2013-09-20 04:15:00,68.5,41.9,29.67,NNE,32,0.0,1.0,38,0.00,,,0.00,VWS V14.01,2013-09-20 11:15:00,
2013-09-20 04:16:00,68.5,41.9,29.67,NNE,32,0.0,1.0,38,0.00,,,0.00,VWS V14.01,2013-09-20 11:16:00,
2013-09-20 04:20:00,68.8,41.5,29.67,NNE,32,3.0,3.0,37,0.00,,,0.00,VWS V14.01,2013-09-20 11:20:00,
2013-09-20 04:21:00,69.0,41.7,29.67,NNE,31,2.0,3.0,37,0.00,,,0.00,VWS V14.01,2013-09-20 11:21:00,
2013-09-20 04:25:00,69.6,41.5,29.67,NNE,27,0.0,3.0,36,0.00,,,0.00,VWS V14.01,2013-09-20 11:25:00,
2013-09-20 04:26:00,69.7,41.6,29.67,NNE,27,0.0,0.0,36,0.00,,,0.00,VWS V14.01,2013-09-20 11:26:00,
2013-09-20 04:30:00,69.5,41.4,29.67,NNE,27,0.0,1.0,36,0.00,,,0.00,VWS V14.01,2013-09-20 11:30:00,
2013-09-20 04:31:00,69.4,41.3,29.67,NNE,27,0.0,1.0,36,0.00,,,0.00,VWS V14.01,2013-09-20 11:31:00,
2013-09-20 04:35:00,69.4,41.3,29.67,NNE,27,1.0,3.0,36,0.00,,,0.00,VWS V14.01,2013-09-20 11:35:00,
2013-09-20 04:36:00,69.4,41.3,29.67,NNE,26,1.0,3.0,36,0.00,,,0.00,VWS V14.01,2013-09-20 11:36:00,
2013-09-20 04:40:00,69.3,41.9,29.68,NNE,30,3.0,3.0,37,0.00,,,0.00,VWS V14.01,2013-09-20 11:40:00,
2013-09-20 04:41:00,69.1,41.8,29.68,NE,48,3.0,3.0,37,0.00,,,0.00,VWS V14.01,2013-09-20 11:41:00,
2013-09-20 04:45:00,68.5,41.9,29.68,North,5,1.0,4.0,38,0.00,,,0.00,VWS V14.01,2013-09-20 11:45:00,
2013-09-20 04:46:00,68.5,41.9,29.67,North,9,0.0,3.0,38,0.00,,,0.00,VWS V14.01,2013-09-20 11:46:00,
2013-09-20 04:50:00,68.2,42.3,29.68,North,9,1.0,3.0,39,0.00,,,0.00,VWS V14.01,2013-09-20 11:50:00,
2013-09-20 04:51:00,68.1,42.2,29.68,North,360,2.0,3.0,39,0.00,,,0.00,VWS V14.01,2013-09-20 11:51:00,
2013-09-20 04:55:00,68.0,42.1,29.68,North,360,1.0,3.0,39,0.00,,,0.00,VWS V14.01,2013-09-20 11:55:00,
2013-09-20 04:56:00,68.0,42.1,29.68,North,360,0.0,2.0,39,0.00,,,0.00,VWS V14.01,2013-09-20 11:56:00,
2013-09-20 05:00:00,68.0,42.1,29.68,North,360,2.0,3.0,39,0.00,,,0.00,VWS V14.01,2013-09-20 12:00:00,
2013-09-20 05:01:00,68.0,42.1,29.68,North,360,0.0,2.0,39,0.00,,,0.00,VWS V14.01,2013-09-20 12:01:00,
2013-09-20 05:05:00,68.1,42.2,29.68,North,360,0.0,2.0,39,0.00,,,0.00,VWS V14.01,2013-09-20 12:05:00,
2013-09-20 05:06:00,68.1,42.2,29.68,North,5,2.0,3.0,39,0.00,,,0.00,VWS V14.01,2013-09-20 12:06:00,
2013-09-20 05:10:00,68.0,42.1,29.68,North,355,2.0,4.0,39,0.00,,,0.00,VWS V14.01,2013-09-20 12:10:00,
2013-09-20 05:11:00,68.0,42.1,29.68,North,11,4.0,4.0,39,0.00,,,0.00,VWS V14.01,2013-09-20 12:11:00,
2013-09-20 05:15:00,68.1,42.2,29.68,NNE,14,4.0,4.0,39,0.00,,,0.00,VWS V14.01,2013-09-20 12:15:00,
2013-09-20 05:16:00,68.2,42.3,29.68,NNE,14,1.0,4.0,39,0.00,,,0.00,VWS V14.01,2013-09-20 12:16:00,
2013-09-20 05:20:00,68.3,42.4,29.68,NNE,13,2.0,4.0,39,0.00,,,0.00,VWS V14.01,2013-09-20 12:20:00,
2013-09-20 05:21:00,68.3,42.4,29.68,NNE,19,2.0,3.0,39,0.00,,,0.00,VWS V14.01,2013-09-20 12:21:00,
2013-09-20 05:25:00,68.8,42.9,29.68,North,11,2.0,5.0,39,0.00,,,0.00,VWS V14.01,2013-09-20 12:25:00,
2013-09-20 05:26:00,68.8,42.9,29.68,NNE,17,2.0,3.0,39,0.00,,,0.00,VWS V14.01,2013-09-20 12:26:00,
2013-09-20 05:30:00,68.7,42.8,29.68,NNE,19,1.0,3.0,39,0.00,,,0.00,VWS V14.01,2013-09-20 12:30:00,
2013-09-20 05:31:00,68.6,42.7,29.68,NNE,19,1.0,2.0,39,0.00,,,0.00,VWS V14.01,2013-09-20 12:31:00,
2013-09-20 05:35:00,68.0,42.8,29.68,NNE,32,3.0,3.0,40,0.00,,,0.00,VWS V14.01,2013-09-20 12:35:00,
2013-09-20 05:36:00,67.9,42.7,29.68,NNE,32,2.0,3.0,40,0.00,,,0.00,VWS V14.01,2013-09-20 12:36:00,
2013-09-20 05:40:00,67.5,43.0,29.68,North,5,4.0,4.0,41,0.00,,,0.00,VWS V14.01,2013-09-20 12:40:00,
2013-09-20 05:41:00,67.4,42.3,29.68,North,5,5.0,5.0,40,0.00,,,0.00,VWS V14.01,2013-09-20 12:41:00,
2013-09-20 05:45:00,67.8,42.0,29.68,North,360,3.0,5.0,39,0.00,,,0.00,VWS V14.01,2013-09-20 12:45:00,
2013-09-20 05:46:00,68.0,42.1,29.68,North,5,3.0,5.0,39,0.00,,,0.00,VWS V14.01,2013-09-20 12:46:00,
2013-09-20 05:50:00,69.0,42.4,29.68,NNE,26,2.0,5.0,38,0.00,,,0.00,VWS V14.01,2013-09-20 12:50:00,
2013-09-20 05:51:00,69.1,41.8,29.68,North,5,5.0,6.0,37,0.00,,,0.00,VWS V14.01,2013-09-20 12:51:00,
2013-09-20 05:55:00,69.8,42.4,29.68,North,5,3.0,6.0,37,0.00,,,0.00,VWS V14.01,2013-09-20 12:55:00,
2013-09-20 05:56:00,69.9,42.5,29.68,North,10,4.0,4.0,37,0.00,,,0.00,VWS V14.01,2013-09-20 12:56:00,
2013-09-20 06:00:00,69.9,42.5,29.69,North,355,4.0,5.0,37,0.00,,,0.00,VWS V14.01,2013-09-20 13:00:00,
2013-09-20 06:01:00,69.8,42.4,29.69,North,360,2.0,5.0,37,0.00,,,0.00,VWS V14.01,2013-09-20 13:01:00,
2013-09-20 06:05:00,69.7,42.3,29.69,NNW,348,5.0,7.0,37,0.00,,,0.00,VWS V14.01,2013-09-20 13:05:00,
2013-09-20 06:06:00,69.8,42.4,29.69,North,5,5.0,8.0,37,0.00,,,0.00,VWS V14.01,2013-09-20 13:06:00,
2013-09-20 06:10:00,70.3,42.1,29.69,North,349,5.0,8.0,36,0.00,,,0.00,VWS V14.01,2013-09-20 13:10:00,
2013-09-20 06:11:00,70.3,42.1,29.69,NNW,335,6.0,6.0,36,0.00,,,0.00,VWS V14.01,2013-09-20 13:11:00,
2013-09-20 06:15:00,70.5,42.3,29.69,NNW,338,0.0,8.0,36,0.00,,,0.00,VWS V14.01,2013-09-20 13:15:00,
2013-09-20 06:16:00,70.6,42.4,29.69,NNW,339,1.0,4.0,36,0.00,,,0.00,VWS V14.01,2013-09-20 13:16:00,
2013-09-20 06:20:00,70.6,42.4,29.69,NW,319,1.0,4.0,36,0.00,,,0.00,VWS V14.01,2013-09-20 13:20:00,
2013-09-20 06:21:00,70.6,42.4,29.69,NW,319,2.0,2.0,36,0.00,,,0.00,VWS V14.01,2013-09-20 13:21:00,
2013-09-20 06:25:00,70.6,42.4,29.69,NW,322,2.0,6.0,36,0.00,,,0.00,VWS V14.01,2013-09-20 13:25:00,
2013-09-20 06:26:00,70.8,42.5,29.69,NNW,331,4.0,8.0,36,0.00,,,0.00,VWS V14.01,2013-09-20 13:26:00,
2013-09-20 06:30:00,72.0,42.9,29.69,NW,321,4.0,8.0,35,0.00,,,0.00,VWS V14.01,2013-09-20 13:30:00,
2013-09-20 06:31:00,72.3,43.1,29.69,NNW,328,4.0,6.0,35,0.00,,,0.00,VWS V14.01,2013-09-20 13:31:00,
2013-09-20 06:35:00,73.2,43.2,29.69,NNW,342,5.0,6.0,34,0.00,,,0.00,VWS V14.01,2013-09-20 13:35:00,
2013-09-20 06:36:00,73.5,43.4,29.69,NNW,338,4.0,5.0,34,0.00,,,0.00,VWS V14.01,2013-09-20 13:36:00,
2013-09-20 06:40:00,74.7,43.7,29.69,NW,324,1.0,7.0,33,0.00,,,0.00,VWS V14.01,2013-09-20 13:40:00,
2013-09-20 06:41:00,75.0,43.2,29.69,NNW,340,4.0,6.0,32,0.00,,,0.00,VWS V14.01,2013-09-20 13:41:00,
2013-09-20 06:45:00,76.0,44.0,29.69,NNW,340,3.0,7.0,32,0.00,,,0.00,VWS V14.01,2013-09-20 13:45:00,
2013-09-20 06:46:00,76.2,43.4,29.70,NW,325,3.0,6.0,31,0.00,,,0.00,VWS V14.01,2013-09-20 13:46:00,
2013-09-20 06:50:00,76.9,43.1,29.70,North,360,7.0,7.0,30,0.00,,,0.00,VWS V14.01,2013-09-20 13:50:00,
2013-09-20 06:55:00,77.8,43.9,29.69,North,355,6.0,8.0,30,0.00,,,0.00,VWS V14.01,2013-09-20 13:55:00,
2013-09-20 06:56:00,78.0,44.1,29.69,NNW,348,4.0,7.0,30,0.00,,,0.00,VWS V14.01,2013-09-20 13:56:00,
2013-09-20 07:05:00,79.4,43.5,29.70,NNW,344,5.0,9.0,28,0.00,,,0.00,VWS V14.01,2013-09-20 14:05:00,
2013-09-20 07:10:00,79.9,43.9,29.70,NNW,340,3.0,7.0,28,0.00,,,0.00,VWS V14.01,2013-09-20 14:10:00,
2013-09-20 07:15:00,80.3,44.3,29.70,NNW,347,7.0,8.0,28,0.00,,,0.00,VWS V14.01,2013-09-20 14:15:00,
2013-09-20 07:16:00,80.4,44.3,29.70,NW,324,3.0,7.0,28,0.00,,,0.00,VWS V14.01,2013-09-20 14:16:00,
2013-09-20 07:20:00,80.8,44.7,29.70,NW,325,2.0,7.0,28,0.00,,,0.00,VWS V14.01,2013-09-20 14:20:00,
2013-09-20 07:21:00,80.9,44.8,29.70,NNW,340,3.0,3.0,28,0.00,,,0.00,VWS V14.01,2013-09-20 14:21:00,
2013-09-20 07:24:00,77.1,43.3,29.70,NNW,341,6.0,7.0,30,0.00,,,0.00,VWS V14.01,2013-09-20 14:24:00,
2013-09-20 07:25:00,81.5,44.3,29.70,North,355,3.0,5.0,27,0.00,,,0.00,VWS V14.01,2013-09-20 14:25:00,
2013-09-20 07:26:00,81.7,44.5,29.70,NW,325,3.0,3.0,27,0.00,,,0.00,VWS V14.01,2013-09-20 14:26:00,
2013-09-20 07:30:00,82.0,44.8,29.70,NNW,337,2.0,5.0,27,0.00,,,0.00,VWS V14.01,2013-09-20 14:30:00,
2013-09-20 07:31:00,82.2,44.9,29.70,NNW,346,0.0,3.0,27,0.00,,,0.00,VWS V14.01,2013-09-20 14:31:00,
2013-09-20 07:33:00,78.7,43.8,29.70,North,355,5.0,8.0,29,0.00,,,0.00,VWS V14.01,2013-09-20 14:33:00,
2013-09-20 07:35:00,82.9,44.5,29.70,NNW,336,4.0,4.0,26,0.00,,,0.00,VWS V14.01,2013-09-20 14:35:00,
2013-09-20 07:39:00,79.6,43.7,29.70,North,360,5.0,7.0,28,0.00,,,0.00,VWS V14.01,2013-09-20 14:39:00,
2013-09-20 07:40:00,83.2,44.8,29.70,NNW,336,0.0,4.0,26,0.00,,,0.00,VWS V14.01,2013-09-20 14:40:00,
2013-09-20 07:41:00,83.6,44.1,29.70,NNW,336,0.0,1.0,25,0.00,,,0.00,VWS V14.01,2013-09-20 14:41:00,
2013-09-20 07:44:00,80.0,44.0,29.70,NNW,340,5.0,5.0,28,0.00,,,0.00,VWS V14.01,2013-09-20 14:44:00,
2013-09-20 07:45:00,83.8,44.3,29.70,NNW,336,0.0,2.0,25,0.00,,,0.00,VWS V14.01,2013-09-20 14:45:00,
2013-09-20 07:46:00,84.0,44.4,29.70,NNW,336,0.0,0.0,25,0.00,,,0.00,VWS V14.01,2013-09-20 14:46:00,
2013-09-20 07:50:00,85.0,44.2,29.70,NNW,336,0.0,1.0,24,0.00,,,0.00,VWS V14.01,2013-09-20 14:50:00,
2013-09-20 07:51:00,85.4,44.5,29.70,NNW,336,0.0,1.0,24,0.00,,,0.00,VWS V14.01,2013-09-20 14:51:00,
2013-09-20 07:56:00,84.5,45.9,29.70,SE,136,1.0,2.0,26,0.00,,,0.00,VWS V14.01,2013-09-20 14:56:00,
2013-09-20 08:09:00,83.0,44.6,29.70,NNW,336,2.0,4.0,26,0.00,,,0.00,VWS V14.01,2013-09-20 15:09:00,
2013-09-20 08:11:00,84.5,46.9,29.70,SE,146,1.0,2.0,27,0.00,,,0.00,VWS V14.01,2013-09-20 15:11:00,
2013-09-20 08:16:00,85.2,46.5,29.71,SE,146,0.0,2.0,26,0.00,,,0.00,VWS V14.01,2013-09-20 15:16:00,
2013-09-20 08:20:00,86.0,46.1,29.71,South,190,2.0,4.0,25,0.00,,,0.00,VWS V14.01,2013-09-20 15:20:00,
2013-09-20 08:21:00,86.5,46.5,29.71,South,190,0.0,2.0,25,0.00,,,0.00,VWS V14.01,2013-09-20 15:21:00,
2013-09-20 08:28:00,84.5,45.9,29.70,SE,138,0.0,5.0,26,0.00,,,0.00,VWS V14.01,2013-09-20 15:28:00,
2013-09-20 08:33:00,84.3,48.6,29.70,SE,144,2.0,5.0,29,0.00,,,0.00,VWS V14.01,2013-09-20 15:33:00,
2013-09-20 08:36:00,87.7,45.3,29.71,SSW,208,5.0,5.0,23,0.00,,,0.00,VWS V14.01,2013-09-20 15:36:00,
2013-09-20 08:38:00,83.8,47.2,29.70,ESE,120,4.0,5.0,28,0.00,,,0.00,VWS V14.01,2013-09-20 15:38:00,
2013-09-20 08:40:00,87.5,44.0,29.71,SW,223,7.0,9.0,22,0.00,,,0.00,VWS V14.01,2013-09-20 15:40:00,
2013-09-20 08:41:00,87.5,44.0,29.71,SSW,213,8.0,8.0,22,0.00,,,0.00,VWS V14.01,2013-09-20 15:41:00,
2013-09-20 08:43:00,84.1,46.5,29.70,SE,136,0.0,4.0,27,0.00,,,0.00,VWS V14.01,2013-09-20 15:43:00,
2013-09-20 08:45:00,87.5,44.0,29.72,SW,217,4.0,8.0,22,0.00,,,0.00,VWS V14.01,2013-09-20 15:45:00,
2013-09-20 08:46:00,87.6,44.1,29.72,SW,221,2.0,5.0,22,0.00,,,0.00,VWS V14.01,2013-09-20 15:46:00,
2013-09-20 08:48:00,85.1,46.4,29.70,SE,146,0.0,2.0,26,0.00,,,0.00,VWS V14.01,2013-09-20 15:48:00,
2013-09-20 08:50:00,87.4,43.9,29.72,SW,214,1.0,8.0,22,0.00,,,0.00,VWS V14.01,2013-09-20 15:50:00,
2013-09-20 08:51:00,87.4,43.9,29.72,SW,224,5.0,7.0,22,0.00,,,0.00,VWS V14.01,2013-09-20 15:51:00,
2013-09-20 08:55:00,87.5,44.0,29.72,SW,225,0.0,8.0,22,0.00,,,0.00,VWS V14.01,2013-09-20 15:55:00,
2013-09-20 08:56:00,87.9,44.3,29.72,SSW,200,1.0,5.0,22,0.00,,,0.00,VWS V14.01,2013-09-20 15:56:00,
2013-09-20 08:58:00,86.5,45.5,29.71,South,189,1.0,2.0,24,0.00,,,0.00,VWS V14.01,2013-09-20 15:58:00,
2013-09-20 09:00:00,88.0,44.4,29.72,SW,224,2.0,7.0,22,0.00,,,0.00,VWS V14.01,2013-09-20 16:00:00,
2013-09-20 09:01:00,88.4,43.5,29.72,SSW,194,2.0,6.0,21,0.00,,,0.00,VWS V14.01,2013-09-20 16:01:00,
2013-09-20 09:03:00,86.9,45.8,29.71,SSW,198,0.0,3.0,24,0.00,,,0.00,VWS V14.01,2013-09-20 16:03:00,
2013-09-20 09:05:00,88.4,44.8,29.72,SW,219,6.0,8.0,22,0.00,,,0.00,VWS V14.01,2013-09-20 16:05:00,
2013-09-20 09:06:00,88.5,46.0,29.72,SW,216,3.0,7.0,23,0.00,,,0.00,VWS V14.01,2013-09-20 16:06:00,
2013-09-20 09:08:00,87.5,44.0,29.71,SW,225,1.0,6.0,22,0.00,,,0.00,VWS V14.01,2013-09-20 16:08:00,
2013-09-20 09:10:00,88.7,46.2,29.72,WSW,252,6.0,7.0,23,0.00,,,0.00,VWS V14.01,2013-09-20 16:10:00,
2013-09-20 09:11:00,88.5,47.1,29.72,SW,219,5.0,6.0,24,0.00,,,0.00,VWS V14.01,2013-09-20 16:11:00,
2013-09-20 09:15:00,88.6,47.2,29.72,SSW,204,3.0,9.0,24,0.00,,,0.00,VWS V14.01,2013-09-20 16:15:00,
2013-09-20 09:16:00,88.9,47.5,29.72,SW,229,1.0,5.0,24,0.00,,,0.00,VWS V14.01,2013-09-20 16:16:00,
2013-09-20 09:20:00,88.8,46.3,29.72,SW,232,2.0,9.0,23,0.00,,,0.00,VWS V14.01,2013-09-20 16:20:00,
2013-09-20 09:25:00,88.9,47.5,29.72,South,176,6.0,10.0,24,0.00,,,0.00,VWS V14.01,2013-09-20 16:25:00,
2013-09-20 09:26:00,89.0,48.7,29.72,SW,221,5.0,8.0,25,0.00,,,0.00,VWS V14.01,2013-09-20 16:26:00,
2013-09-20 09:30:00,89.5,49.1,29.72,SW,225,0.0,8.0,25,0.00,,,0.00,VWS V14.01,2013-09-20 16:30:00,
2013-09-20 09:31:00,89.5,48.0,29.72,SSW,192,6.0,10.0,24,0.00,,,0.00,VWS V14.01,2013-09-20 16:31:00,
2013-09-20 09:36:00,89.5,48.0,29.72,SW,217,7.0,10.0,24,0.00,,,0.00,VWS V14.01,2013-09-20 16:36:00,
2013-09-20 09:40:00,89.2,48.8,29.72,SW,217,9.0,11.0,25,0.00,,,0.00,VWS V14.01,2013-09-20 16:40:00,
2013-09-20 09:41:00,89.2,48.8,29.72,SW,217,2.0,9.0,25,0.00,,,0.00,VWS V14.01,2013-09-20 16:41:00,
2013-09-20 09:45:00,89.6,49.2,29.72,SW,214,9.0,9.0,25,0.00,,,0.00,VWS V14.01,2013-09-20 16:45:00,
2013-09-20 09:46:00,90.0,47.3,29.72,SW,223,2.0,11.0,23,0.00,,,0.00,VWS V14.01,2013-09-20 16:46:00,
2013-09-20 09:50:00,90.2,47.4,29.72,SW,225,1.0,11.0,23,0.00,,,0.00,VWS V14.01,2013-09-20 16:50:00,
2013-09-20 09:51:00,90.4,48.7,29.72,SW,218,4.0,5.0,24,0.00,,,0.00,VWS V14.01,2013-09-20 16:51:00,
2013-09-20 09:55:00,90.6,46.6,29.72,SSW,195,4.0,10.0,22,0.00,,,0.00,VWS V14.01,2013-09-20 16:55:00,
2013-09-20 09:56:00,90.5,46.5,29.72,SW,223,1.0,7.0,22,0.00,,,0.00,VWS V14.01,2013-09-20 16:56:00,
2013-09-20 10:00:00,91.1,48.2,29.72,SW,217,6.0,7.0,23,0.00,,,0.00,VWS V14.01,2013-09-20 17:00:00,
2013-09-20 10:01:00,91.7,48.7,29.71,SW,227,5.0,6.0,23,0.00,,,0.00,VWS V14.01,2013-09-20 17:01:00,
2013-09-20 10:05:00,91.3,47.2,29.71,SW,227,0.0,10.0,22,0.00,,,0.00,VWS V14.01,2013-09-20 17:05:00,
2013-09-20 10:06:00,91.3,48.3,29.71,SW,217,5.0,6.0,23,0.00,,,0.00,VWS V14.01,2013-09-20 17:06:00,
2013-09-20 10:08:00,89.6,49.2,29.72,SW,215,9.0,10.0,25,0.00,,,0.00,VWS V14.01,2013-09-20 17:08:00,
2013-09-20 10:11:00,91.8,47.6,29.71,SW,217,3.0,9.0,22,0.00,,,0.00,VWS V14.01,2013-09-20 17:11:00,
2013-09-20 10:15:00,90.6,48.9,29.71,West,271,0.0,9.0,24,0.00,,,0.00,VWS V14.01,2013-09-20 17:15:00,
2013-09-20 10:16:00,89.9,48.3,29.71,WNW,282,0.0,6.0,24,0.00,,,0.00,VWS V14.01,2013-09-20 17:16:00,
2013-09-20 10:20:00,91.5,49.7,29.71,SSW,211,2.0,8.0,24,0.00,,,0.00,VWS V14.01,2013-09-20 17:20:00,
2013-09-20 10:21:00,91.7,46.3,29.71,West,259,3.0,5.0,21,0.00,,,0.00,VWS V14.01,2013-09-20 17:21:00,
2013-09-20 10:25:00,91.2,49.4,29.70,SSW,208,10.0,10.0,24,0.00,,,0.00,VWS V14.01,2013-09-20 17:25:00,
2013-09-20 10:26:00,91.8,48.8,29.71,SW,221,3.0,10.0,23,0.00,,,0.00,VWS V14.01,2013-09-20 17:26:00,
2013-09-20 10:30:00,92.2,49.1,29.71,West,273,3.0,10.0,23,0.00,,,0.00,VWS V14.01,2013-09-20 17:30:00,
2013-09-20 10:31:00,91.7,48.7,29.70,West,273,2.0,6.0,23,0.00,,,0.00,VWS V14.01,2013-09-20 17:31:00,
2013-09-20 10:35:00,92.4,49.3,29.70,SSW,193,3.0,6.0,23,0.00,,,0.00,VWS V14.01,2013-09-20 17:35:00,
2013-09-20 10:36:00,92.6,49.4,29.70,SW,229,1.0,8.0,23,0.00,,,0.00,VWS V14.01,2013-09-20 17:36:00,
2013-09-20 10:40:00,92.6,49.4,29.70,SSW,192,0.0,8.0,23,0.00,,,0.00,VWS V14.01,2013-09-20 17:40:00,
2013-09-20 10:41:00,93.3,48.8,29.70,SSW,196,0.0,3.0,22,0.00,,,0.00,VWS V14.01,2013-09-20 17:41:00,
2013-09-20 10:43:00,91.8,48.8,29.71,SSW,204,4.0,9.0,23,0.00,,,0.00,VWS V14.01,2013-09-20 17:43:00,
2013-09-20 10:45:00,93.5,49.0,29.70,SSW,213,6.0,6.0,22,0.00,,,0.00,VWS V14.01,2013-09-20 17:45:00,
2013-09-20 10:46:00,93.6,49.1,29.70,WSW,244,2.0,6.0,22,0.00,,,0.00,VWS V14.01,2013-09-20 17:46:00,
2013-09-20 10:50:00,93.4,48.9,29.70,SSW,192,0.0,7.0,22,0.00,,,0.00,VWS V14.01,2013-09-20 17:50:00,
2013-09-20 10:51:00,93.2,49.9,29.70,West,281,4.0,5.0,23,0.00,,,0.00,VWS V14.01,2013-09-20 17:51:00,
2013-09-20 10:55:00,92.7,49.5,29.69,West,261,1.0,5.0,23,0.00,,,0.00,VWS V14.01,2013-09-20 17:55:00,
2013-09-20 10:56:00,92.5,50.5,29.69,WSW,257,1.0,2.0,24,0.00,,,0.00,VWS V14.01,2013-09-20 17:56:00,
2013-09-20 11:00:00,93.5,50.2,29.69,SW,220,0.0,6.0,23,0.00,,,0.00,VWS V14.01,2013-09-20 18:00:00,
2013-09-20 11:01:00,94.0,49.4,29.69,SSW,211,2.0,6.0,22,0.00,,,0.00,VWS V14.01,2013-09-20 18:01:00,
2013-09-20 11:05:00,94.9,50.2,29.69,SW,216,1.0,8.0,22,0.00,,,0.00,VWS V14.01,2013-09-20 18:05:00,
2013-09-20 11:06:00,95.1,49.1,29.69,SW,222,2.0,6.0,21,0.00,,,0.00,VWS V14.01,2013-09-20 18:06:00,
2013-09-20 11:10:00,94.9,47.6,29.69,SW,232,2.0,10.0,20,0.00,,,0.00,VWS V14.01,2013-09-20 18:10:00,
2013-09-20 11:11:00,94.9,48.9,29.69,SW,219,6.0,7.0,21,0.00,,,0.00,VWS V14.01,2013-09-20 18:11:00,
2013-09-20 11:15:00,94.2,49.6,29.69,South,187,3.0,7.0,22,0.00,,,0.00,VWS V14.01,2013-09-20 18:15:00,
2013-09-20 11:16:00,94.4,49.7,29.69,SSW,211,1.0,9.0,22,0.00,,,0.00,VWS V14.01,2013-09-20 18:16:00,
2013-09-20 11:20:00,94.5,52.2,29.68,South,178,2.0,9.0,24,0.00,,,0.00,VWS V14.01,2013-09-20 18:20:00,
2013-09-20 11:21:00,94.3,53.1,29.68,WSW,254,2.0,6.0,25,0.00,,,0.00,VWS V14.01,2013-09-20 18:21:00,
2013-09-20 11:25:00,95.0,52.6,29.68,South,189,0.0,9.0,24,0.00,,,0.00,VWS V14.01,2013-09-20 18:25:00,
2013-09-20 11:26:00,94.5,53.3,29.68,SSW,213,0.0,4.0,25,0.00,,,0.00,VWS V14.01,2013-09-20 18:26:00,
2013-09-20 11:30:00,95.5,53.0,29.68,SW,222,2.0,6.0,24,0.00,,,0.00,VWS V14.01,2013-09-20 18:30:00,
2013-09-20 11:31:00,94.9,52.5,29.68,SW,223,0.0,2.0,24,0.00,,,0.00,VWS V14.01,2013-09-20 18:31:00,
2013-09-20 11:35:00,94.4,53.2,29.68,NW,312,4.0,5.0,25,0.00,,,0.00,VWS V14.01,2013-09-20 18:35:00,
2013-09-20 11:36:00,94.1,52.9,29.67,West,275,1.0,7.0,25,0.00,,,0.00,VWS V14.01,2013-09-20 18:36:00,
2013-09-20 11:40:00,95.6,53.1,29.67,South,175,2.0,12.0,24,0.00,,,0.00,VWS V14.01,2013-09-20 18:40:00,
2013-09-20 11:41:00,95.9,53.3,29.67,SSW,198,2.0,9.0,24,0.00,,,0.00,VWS V14.01,2013-09-20 18:41:00,
2013-09-20 11:45:00,96.0,53.4,29.67,SW,216,4.0,9.0,24,0.00,,,0.00,VWS V14.01,2013-09-20 18:45:00,
2013-09-20 11:46:00,96.3,53.7,29.67,SW,216,7.0,11.0,24,0.00,,,0.00,VWS V14.01,2013-09-20 18:46:00,
2013-09-20 11:50:00,96.8,54.1,29.67,WSW,240,7.0,11.0,24,0.00,,,0.00,VWS V14.01,2013-09-20 18:50:00,
2013-09-20 11:51:00,96.6,52.8,29.67,SSW,199,6.0,10.0,23,0.00,,,0.00,VWS V14.01,2013-09-20 18:51:00,
2013-09-20 11:55:00,96.4,53.8,29.67,SSE,163,4.0,10.0,24,0.00,,,0.00,VWS V14.01,2013-09-20 18:55:00,
2013-09-20 11:56:00,96.3,53.7,29.67,SW,232,0.0,7.0,24,0.00,,,0.00,VWS V14.01,2013-09-20 18:56:00,
2013-09-20 12:00:00,96.0,52.3,29.67,West,278,3.0,7.0,23,0.00,,,0.00,VWS V14.01,2013-09-20 19:00:00,
2013-09-20 12:01:00,95.2,52.8,29.67,West,273,2.0,7.0,24,0.00,,,0.00,VWS V14.01,2013-09-20 19:01:00,
2013-09-20 12:05:00,95.3,52.8,29.66,SSW,202,3.0,8.0,24,0.00,,,0.00,VWS V14.01,2013-09-20 19:05:00,
2013-09-20 12:06:00,96.0,53.4,29.66,SSW,197,7.0,11.0,24,0.00,,,0.00,VWS V14.01,2013-09-20 19:06:00,
2013-09-20 12:10:00,96.3,52.5,29.66,South,175,2.0,11.0,23,0.00,,,0.00,VWS V14.01,2013-09-20 19:10:00,
2013-09-20 12:11:00,96.2,53.6,29.66,South,169,1.0,7.0,24,0.00,,,0.00,VWS V14.01,2013-09-20 19:11:00,
2013-09-20 12:15:00,96.8,54.1,29.66,WSW,243,0.0,7.0,24,0.00,,,0.00,VWS V14.01,2013-09-20 19:15:00,
2013-09-20 12:16:00,96.2,53.6,29.66,WSW,242,0.0,1.0,24,0.00,,,0.00,VWS V14.01,2013-09-20 19:16:00,
2013-09-20 12:20:00,97.8,53.8,29.66,South,182,3.0,8.0,23,0.00,,,0.00,VWS V14.01,2013-09-20 19:20:00,
2013-09-20 12:21:00,98.2,52.9,29.66,SW,227,3.0,11.0,22,0.00,,,0.00,VWS V14.01,2013-09-20 19:21:00,
2013-09-20 12:25:00,97.7,52.5,29.66,West,272,4.0,11.0,22,0.00,,,0.00,VWS V14.01,2013-09-20 19:25:00,
2013-09-20 12:26:00,97.5,52.3,29.66,SSW,206,5.0,6.0,22,0.00,,,0.00,VWS V14.01,2013-09-20 19:26:00,
2013-09-20 12:30:00,96.8,52.9,29.65,West,280,1.0,9.0,23,0.00,,,0.00,VWS V14.01,2013-09-20 19:30:00,
2013-09-20 12:31:00,96.3,52.5,29.66,WNW,286,3.0,9.0,23,0.00,,,0.00,VWS V14.01,2013-09-20 19:31:00,
2013-09-20 12:35:00,96.8,52.9,29.66,SSW,209,6.0,9.0,23,0.00,,,0.00,VWS V14.01,2013-09-20 19:35:00,
2013-09-20 12:36:00,97.2,53.3,29.66,SW,223,0.0,8.0,23,0.00,,,0.00,VWS V14.01,2013-09-20 19:36:00,
2013-09-20 12:40:00,97.4,52.2,29.66,SW,215,8.0,10.0,22,0.00,,,0.00,VWS V14.01,2013-09-20 19:40:00,
2013-09-20 12:41:00,97.1,52.0,29.66,South,179,1.0,9.0,22,0.00,,,0.00,VWS V14.01,2013-09-20 19:41:00,
2013-09-20 12:45:00,97.1,53.2,29.65,South,169,1.0,9.0,23,0.00,,,0.00,VWS V14.01,2013-09-20 19:45:00,
2013-09-20 12:46:00,96.4,52.6,29.65,SSW,209,1.0,5.0,23,0.00,,,0.00,VWS V14.01,2013-09-20 19:46:00,
2013-09-20 12:50:00,97.7,52.5,29.65,SW,230,4.0,9.0,22,0.00,,,0.00,VWS V14.01,2013-09-20 19:50:00,
2013-09-20 12:51:00,98.0,52.7,29.65,SW,223,0.0,6.0,22,0.00,,,0.00,VWS V14.01,2013-09-20 19:51:00,
2013-09-20 12:55:00,96.0,51.1,29.65,West,281,7.0,8.0,22,0.00,,,0.00,VWS V14.01,2013-09-20 19:55:00,
2013-09-20 12:56:00,96.6,52.8,29.65,SW,221,8.0,10.0,23,0.00,,,0.00,VWS V14.01,2013-09-20 19:56:00,
2013-09-20 13:00:00,97.4,52.2,29.65,SW,227,2.0,10.0,22,0.00,,,0.00,VWS V14.01,2013-09-20 20:00:00,
2013-09-20 13:01:00,97.7,52.5,29.65,SW,234,1.0,5.0,22,0.00,,,0.00,VWS V14.01,2013-09-20 20:01:00,
2013-09-20 13:05:00,97.4,52.2,29.65,West,272,3.0,6.0,22,0.00,,,0.00,VWS V14.01,2013-09-20 20:05:00,
2013-09-20 13:06:00,96.2,50.0,29.65,NW,311,4.0,8.0,21,0.00,,,0.00,VWS V14.01,2013-09-20 20:06:00,
2013-09-20 13:10:00,96.5,51.5,29.65,SW,216,2.0,8.0,22,0.00,,,0.00,VWS V14.01,2013-09-20 20:10:00,
2013-09-20 13:11:00,97.3,50.9,29.64,WNW,290,1.0,5.0,21,0.00,,,0.00,VWS V14.01,2013-09-20 20:11:00,
2013-09-20 13:15:00,97.2,50.8,29.64,SW,235,2.0,5.0,21,0.00,,,0.00,VWS V14.01,2013-09-20 20:15:00,
2013-09-20 13:16:00,97.5,49.7,29.64,NW,323,0.0,5.0,20,0.00,,,0.00,VWS V14.01,2013-09-20 20:16:00,
2013-09-20 13:20:00,97.4,49.7,29.64,West,262,0.0,5.0,20,0.00,,,0.00,VWS V14.01,2013-09-20 20:20:00,
2013-09-20 13:21:00,97.9,50.1,29.64,SSW,212,2.0,8.0,20,0.00,,,0.00,VWS V14.01,2013-09-20 20:21:00,
2013-09-20 13:25:00,99.3,49.8,29.64,WSW,257,3.0,8.0,19,0.00,,,0.00,VWS V14.01,2013-09-20 20:25:00,
2013-09-20 13:26:00,99.7,48.7,29.64,SW,215,4.0,9.0,18,0.00,,,0.00,VWS V14.01,2013-09-20 20:26:00,
2013-09-20 13:30:00,100.2,47.6,29.64,SW,214,3.0,11.0,17,0.00,,,0.00,VWS V14.01,2013-09-20 20:30:00,
2013-09-20 13:32:00,99.8,47.2,29.64,SW,228,0.0,4.0,17,0.00,,,0.00,VWS V14.01,2013-09-20 20:32:00,
2013-09-20 13:35:00,99.7,48.7,29.64,South,172,4.0,8.0,18,0.00,,,0.00,VWS V14.01,2013-09-20 20:35:00,
2013-09-20 13:37:00,99.2,48.3,29.64,SSW,192,5.0,5.0,18,0.00,,,0.00,VWS V14.01,2013-09-20 20:37:00,
2013-09-20 13:40:00,97.9,45.7,29.64,SSE,163,2.0,9.0,17,0.00,,,0.00,VWS V14.01,2013-09-20 20:40:00,
2013-09-20 13:42:00,96.2,44.4,29.64,SE,126,4.0,5.0,17,0.00,,,0.00,VWS V14.01,2013-09-20 20:42:00,
2013-09-20 13:45:00,95.4,43.7,29.63,SE,129,1.0,5.0,17,0.00,,,0.00,VWS V14.01,2013-09-20 20:45:00,
2013-09-20 13:47:00,95.7,45.5,29.63,SE,129,0.0,1.0,18,0.00,,,0.00,VWS V14.01,2013-09-20 20:47:00,
2013-09-20 13:50:00,98.2,48.9,29.64,South,169,1.0,9.0,19,0.00,,,0.00,VWS V14.01,2013-09-20 20:50:00,
2013-09-20 13:52:00,98.2,48.9,29.64,South,182,2.0,3.0,19,0.00,,,0.00,VWS V14.01,2013-09-20 20:52:00,
2013-09-20 13:55:00,98.7,49.3,29.64,SW,214,0.0,6.0,19,0.00,,,0.00,VWS V14.01,2013-09-20 20:55:00,
2013-09-20 13:57:00,98.4,46.1,29.64,SW,215,1.0,1.0,17,0.00,,,0.00,VWS V14.01,2013-09-20 20:57:00,
2013-09-20 14:00:00,98.0,47.3,29.64,SSW,213,2.0,6.0,18,0.00,,,0.00,VWS V14.01,2013-09-20 21:00:00,
2013-09-20 14:02:00,98.6,49.2,29.63,South,189,5.0,6.0,19,0.00,,,0.00,VWS V14.01,2013-09-20 21:02:00,
2013-09-20 14:05:00,99.7,50.1,29.63,SW,228,8.0,12.0,19,0.00,,,0.00,VWS V14.01,2013-09-20 21:05:00,
2013-09-20 14:07:00,99.8,48.8,29.63,WSW,257,0.0,8.0,18,0.00,,,0.00,VWS V14.01,2013-09-20 21:07:00,
2013-09-20 14:10:00,99.8,48.8,29.63,South,189,5.0,8.0,18,0.00,,,0.00,VWS V14.01,2013-09-20 21:10:00,
2013-09-20 14:12:00,100.3,49.2,29.63,SSW,209,0.0,5.0,18,0.00,,,0.00,VWS V14.01,2013-09-20 21:12:00,
2013-09-20 14:15:00,100.3,49.2,29.63,SW,221,5.0,8.0,18,0.00,,,0.00,VWS V14.01,2013-09-20 21:15:00,
2013-09-20 14:17:00,100.1,47.5,29.63,West,281,0.0,5.0,17,0.00,,,0.00,VWS V14.01,2013-09-20 21:17:00,
2013-09-20 14:20:00,100.3,47.7,29.63,SW,215,5.0,9.0,17,0.00,,,0.00,VWS V14.01,2013-09-20 21:20:00,
2013-09-20 14:22:00,100.4,47.7,29.63,SSW,213,0.0,6.0,17,0.00,,,0.00,VWS V14.01,2013-09-20 21:22:00,
2013-09-20 14:25:00,100.1,47.5,29.63,SW,215,5.0,6.0,17,0.00,,,0.00,VWS V14.01,2013-09-20 21:25:00,
2013-09-20 14:27:00,100.1,47.5,29.63,SW,220,5.0,6.0,17,0.00,,,0.00,VWS V14.01,2013-09-20 21:27:00,
2013-09-20 14:30:00,100.3,47.7,29.62,SSW,196,4.0,10.0,17,0.00,,,0.00,VWS V14.01,2013-09-20 21:30:00,
2013-09-20 14:32:00,100.0,47.4,29.62,South,187,5.0,7.0,17,0.00,,,0.00,VWS V14.01,2013-09-20 21:32:00,
2013-09-20 14:35:00,99.8,47.2,29.62,South,180,5.0,10.0,17,0.00,,,0.00,VWS V14.01,2013-09-20 21:35:00,
2013-09-20 14:37:00,98.8,48.0,29.62,SSW,207,1.0,6.0,18,0.00,,,0.00,VWS V14.01,2013-09-20 21:37:00,
2013-09-20 14:40:00,99.7,48.7,29.62,SSW,202,5.0,12.0,18,0.00,,,0.00,VWS V14.01,2013-09-20 21:40:00,
2013-09-20 14:42:00,99.6,48.6,29.62,SW,233,2.0,8.0,18,0.00,,,0.00,VWS V14.01,2013-09-20 21:42:00,
2013-09-20 14:45:00,99.5,48.5,29.62,West,269,6.0,9.0,18,0.00,,,0.00,VWS V14.01,2013-09-20 21:45:00,
2013-09-20 14:47:00,99.6,47.1,29.61,WNW,290,5.0,7.0,17,0.00,,,0.00,VWS V14.01,2013-09-20 21:47:00,
2013-09-20 14:50:00,100.1,47.5,29.62,SW,229,2.0,10.0,17,0.00,,,0.00,VWS V14.01,2013-09-20 21:50:00,
2013-09-20 14:52:00,100.1,47.5,29.61,SSW,208,5.0,8.0,17,0.00,,,0.00,VWS V14.01,2013-09-20 21:52:00,
2013-09-20 14:55:00,99.7,47.2,29.61,SW,222,3.0,9.0,17,0.00,,,0.00,VWS V14.01,2013-09-20 21:55:00,
2013-09-20 14:57:00,99.7,47.2,29.61,WSW,248,3.0,9.0,17,0.00,,,0.00,VWS V14.01,2013-09-20 21:57:00,
2013-09-20 15:00:00,100.2,47.6,29.61,SW,227,1.0,9.0,17,0.00,,,0.00,VWS V14.01,2013-09-20 22:00:00,
2013-09-20 15:02:00,100.3,47.7,29.61,WSW,246,5.0,10.0,17,0.00,,,0.00,VWS V14.01,2013-09-20 22:02:00,
2013-09-20 15:05:00,99.8,47.2,29.61,SW,219,5.0,10.0,17,0.00,,,0.00,VWS V14.01,2013-09-20 22:05:00,
2013-09-20 15:07:00,99.6,47.1,29.61,SW,227,0.0,6.0,17,0.00,,,0.00,VWS V14.01,2013-09-20 22:07:00,
2013-09-20 15:10:00,99.8,47.2,29.61,West,266,2.0,10.0,17,0.00,,,0.00,VWS V14.01,2013-09-20 22:10:00,
2013-09-20 15:12:00,99.4,46.9,29.61,NW,315,3.0,7.0,17,0.00,,,0.00,VWS V14.01,2013-09-20 22:12:00,
2013-09-20 15:15:00,99.3,46.8,29.61,SSW,211,9.0,9.0,17,0.00,,,0.00,VWS V14.01,2013-09-20 22:15:00,
2013-09-20 15:17:00,99.7,45.6,29.61,SW,217,4.0,14.0,16,0.00,,,0.00,VWS V14.01,2013-09-20 22:17:00,
2013-09-20 15:20:00,99.2,46.8,29.61,WNW,283,7.0,14.0,17,0.00,,,0.00,VWS V14.01,2013-09-20 22:20:00,
2013-09-20 15:22:00,99.1,46.7,29.61,WNW,285,0.0,7.0,17,0.00,,,0.00,VWS V14.01,2013-09-20 22:22:00,
2013-09-20 15:25:00,99.5,45.4,29.61,SW,235,3.0,7.0,16,0.00,,,0.00,VWS V14.01,2013-09-20 22:25:00,
2013-09-20 15:27:00,99.1,46.7,29.61,SW,221,6.0,7.0,17,0.00,,,0.00,VWS V14.01,2013-09-20 22:27:00,
2013-09-20 15:30:00,98.9,46.5,29.61,SW,216,7.0,12.0,17,0.00,,,0.00,VWS V14.01,2013-09-20 22:30:00,
2013-09-20 15:32:00,98.9,46.5,29.61,SSW,210,10.0,10.0,17,0.00,,,0.00,VWS V14.01,2013-09-20 22:32:00,
2013-09-20 15:35:00,98.8,46.5,29.61,SSW,208,6.0,10.0,17,0.00,,,0.00,VWS V14.01,2013-09-20 22:35:00,
2013-09-20 15:37:00,98.6,46.3,29.61,SW,217,3.0,10.0,17,0.00,,,0.00,VWS V14.01,2013-09-20 22:37:00,
2013-09-20 15:40:00,98.6,46.3,29.61,SSW,209,1.0,10.0,17,0.00,,,0.00,VWS V14.01,2013-09-20 22:40:00,
2013-09-20 15:42:00,98.0,45.8,29.61,SSE,165,0.0,6.0,17,0.00,,,0.00,VWS V14.01,2013-09-20 22:42:00,
2013-09-20 15:45:00,97.9,45.7,29.61,SW,230,0.0,6.0,17,0.00,,,0.00,VWS V14.01,2013-09-20 22:45:00,
2013-09-20 15:50:00,98.1,45.9,29.61,WNW,286,1.0,9.0,17,0.00,,,0.00,VWS V14.01,2013-09-20 22:50:00,
2013-09-20 15:52:00,97.6,45.5,29.61,WNW,290,1.0,8.0,17,0.00,,,0.00,VWS V14.01,2013-09-20 22:52:00,
2013-09-20 15:55:00,97.3,46.8,29.61,SW,221,3.0,8.0,18,0.00,,,0.00,VWS V14.01,2013-09-20 22:55:00,
2013-09-20 15:57:00,98.0,45.8,29.61,South,180,0.0,8.0,17,0.00,,,0.00,VWS V14.01,2013-09-20 22:57:00,
2013-09-20 16:00:00,98.0,45.8,29.61,NW,308,2.0,9.0,17,0.00,,,0.00,VWS V14.01,2013-09-20 23:00:00,
2013-09-20 16:02:00,97.8,45.7,29.61,West,273,6.0,9.0,17,0.00,,,0.00,VWS V14.01,2013-09-20 23:02:00,
2013-09-20 16:05:00,97.7,45.6,29.61,West,269,0.0,9.0,17,0.00,,,0.00,VWS V14.01,2013-09-20 23:05:00,
2013-09-20 16:07:00,97.5,45.4,29.61,WNW,296,4.0,7.0,17,0.00,,,0.00,VWS V14.01,2013-09-20 23:07:00,
2013-09-20 16:10:00,97.1,45.1,29.61,WNW,285,0.0,9.0,17,0.00,,,0.00,VWS V14.01,2013-09-20 23:10:00,
2013-09-20 16:12:00,97.3,45.2,29.61,SW,219,18.0,18.0,17,0.00,,,0.00,VWS V14.01,2013-09-20 23:12:00,
2013-09-20 16:15:00,97.0,45.0,29.61,SSW,206,5.0,18.0,17,0.00,,,0.00,VWS V14.01,2013-09-20 23:15:00,
2013-09-20 16:17:00,96.9,44.9,29.61,WSW,246,1.0,7.0,17,0.00,,,0.00,VWS V14.01,2013-09-20 23:17:00,
2013-09-20 16:20:00,98.3,46.0,29.61,SSW,202,3.0,5.0,17,0.00,,,0.00,VWS V14.01,2013-09-20 23:20:00,
2013-09-20 16:40:00,96.3,44.4,29.62,WNW,302,1.0,8.0,17,0.00,,,0.00,VWS V14.01,2013-09-20 23:40:00,
2013-09-20 16:45:00,95.6,45.4,29.62,NW,308,1.0,7.0,18,0.00,,,0.00,VWS V14.01,2013-09-20 23:45:00,
2013-09-20 16:47:00,95.2,45.1,29.62,NNW,340,4.0,6.0,18,0.00,,,0.00,VWS V14.01,2013-09-20 23:47:00,
2013-09-20 16:53:00,96.8,44.8,29.61,SW,228,9.0,9.0,17,0.00,,,0.00,VWS V14.01,2013-09-20 23:53:00,
2013-09-20 16:55:00,94.7,44.7,29.62,NNW,333,3.0,7.0,18,0.00,,,0.00,VWS V14.01,2013-09-20 23:55:00,
2013-09-20 16:57:00,94.6,44.6,29.62,NW,326,1.0,7.0,18,0.00,,,0.00,VWS V14.01,2013-09-20 23:57:00,
2013-09-20 16:58:00,96.5,44.6,29.61,WSW,242,1.0,12.0,17,0.00,,,0.00,VWS V14.01,2013-09-20 23:58:00,
2013-09-20 17:00:00,94.6,44.6,29.62,WSW,248,0.0,7.0,18,0.00,,,0.00,VWS V14.01,2013-09-21 00:00:00,
2013-09-20 17:02:00,94.9,44.8,29.62,West,264,1.0,6.0,18,0.00,,,0.00,VWS V14.01,2013-09-21 00:02:00,
2013-09-20 17:03:00,96.4,44.5,29.62,SW,217,5.0,9.0,17,0.00,,,0.00,VWS V14.01,2013-09-21 00:03:00,
2013-09-20 17:05:00,94.9,44.8,29.62,WNW,296,0.0,6.0,18,0.00,,,0.00,VWS V14.01,2013-09-21 00:05:00,
2013-09-20 17:08:00,96.4,44.5,29.62,West,276,1.0,6.0,17,0.00,,,0.00,VWS V14.01,2013-09-21 00:08:00,
2013-09-20 17:15:00,96.0,44.2,29.61,WNW,287,2.0,7.0,17,0.00,,,0.00,VWS V14.01,2013-09-21 00:15:00,
2013-09-20 17:20:00,94.0,44.1,29.63,West,281,6.0,8.0,18,0.00,,,0.00,VWS V14.01,2013-09-21 00:20:00,
2013-09-20 17:22:00,93.8,43.9,29.63,WNW,292,6.0,9.0,18,0.00,,,0.00,VWS V14.01,2013-09-21 00:22:00,
2013-09-20 17:23:00,95.1,45.0,29.62,NW,325,4.0,7.0,18,0.00,,,0.00,VWS V14.01,2013-09-21 00:23:00,
2013-09-20 17:27:00,93.4,45.0,29.63,NW,313,0.0,6.0,19,0.00,,,0.00,VWS V14.01,2013-09-21 00:27:00,
2013-09-20 17:32:00,93.2,44.9,29.63,NW,321,3.0,8.0,19,0.00,,,0.00,VWS V14.01,2013-09-21 00:32:00,
2013-09-20 17:35:00,92.9,44.6,29.63,NW,304,1.0,8.0,19,0.00,,,0.00,VWS V14.01,2013-09-21 00:35:00,
2013-09-20 17:37:00,92.8,44.5,29.63,WNW,284,0.0,6.0,19,0.00,,,0.00,VWS V14.01,2013-09-21 00:37:00,
2013-09-20 17:40:00,95.1,45.0,29.62,WSW,238,1.0,4.0,18,0.00,,,0.00,VWS V14.01,2013-09-21 00:40:00,
2013-09-20 17:42:00,92.4,44.2,29.63,NW,323,3.0,6.0,19,0.00,,,0.00,VWS V14.01,2013-09-21 00:42:00,
2013-09-20 17:45:00,94.6,44.6,29.62,WNW,289,0.0,6.0,18,0.00,,,0.00,VWS V14.01,2013-09-21 00:45:00,
2013-09-20 17:47:00,92.0,45.2,29.63,NW,312,0.0,6.0,20,0.00,,,0.00,VWS V14.01,2013-09-21 00:47:00,
2013-09-20 17:50:00,94.2,44.2,29.62,WNW,282,6.0,8.0,18,0.00,,,0.00,VWS V14.01,2013-09-21 00:50:00,
2013-09-20 17:52:00,91.7,45.0,29.63,WNW,286,4.0,4.0,20,0.00,,,0.00,VWS V14.01,2013-09-21 00:52:00,
2013-09-20 17:55:00,91.5,44.8,29.63,WNW,298,3.0,6.0,20,0.00,,,0.00,VWS V14.01,2013-09-21 00:55:00,
2013-09-20 17:57:00,91.5,46.1,29.64,WNW,302,2.0,6.0,21,0.00,,,0.00,VWS V14.01,2013-09-21 00:57:00,
2013-09-20 17:58:00,93.6,43.8,29.63,West,277,5.0,9.0,18,0.00,,,0.00,VWS V14.01,2013-09-21 00:58:00,
2013-09-20 18:00:00,91.4,46.0,29.64,NNW,340,1.0,6.0,21,0.00,,,0.00,VWS V14.01,2013-09-21 01:00:00,
2013-09-20 18:02:00,91.3,45.9,29.64,WNW,296,5.0,5.0,21,0.00,,,0.00,VWS V14.01,2013-09-21 01:02:00,
2013-09-20 18:03:00,93.3,44.9,29.63,WNW,283,4.0,6.0,19,0.00,,,0.00,VWS V14.01,2013-09-21 01:03:00,
2013-09-20 18:05:00,91.1,45.8,29.64,NNW,342,3.0,5.0,21,0.00,,,0.00,VWS V14.01,2013-09-21 01:05:00,
2013-09-20 18:07:00,91.0,45.7,29.64,NW,314,3.0,6.0,21,0.00,,,0.00,VWS V14.01,2013-09-21 01:07:00,
2013-09-20 18:10:00,91.0,45.7,29.64,WNW,294,0.0,6.0,21,0.00,,,0.00,VWS V14.01,2013-09-21 01:10:00,
2013-09-20 18:12:00,90.9,45.6,29.64,WNW,298,0.0,5.0,21,0.00,,,0.00,VWS V14.01,2013-09-21 01:12:00,
2013-09-20 18:15:00,90.8,46.8,29.64,WNW,300,0.0,5.0,22,0.00,,,0.00,VWS V14.01,2013-09-21 01:15:00,
2013-09-20 18:17:00,90.8,46.8,29.65,NW,308,3.0,4.0,22,0.00,,,0.00,VWS V14.01,2013-09-21 01:17:00,
2013-09-20 18:20:00,90.7,46.7,29.65,NW,314,1.0,4.0,22,0.00,,,0.00,VWS V14.01,2013-09-21 01:20:00,
2013-09-20 18:22:00,90.5,46.5,29.65,NW,315,0.0,2.0,22,0.00,,,0.00,VWS V14.01,2013-09-21 01:22:00,
2013-09-20 18:25:00,90.4,46.4,29.65,WNW,294,1.0,5.0,22,0.00,,,0.00,VWS V14.01,2013-09-21 01:25:00,
2013-09-20 18:27:00,90.3,46.3,29.65,WNW,290,5.0,5.0,22,0.00,,,0.00,VWS V14.01,2013-09-21 01:27:00,
2013-09-20 18:30:00,90.2,46.2,29.65,NW,321,0.0,7.0,22,0.00,,,0.00,VWS V14.01,2013-09-21 01:30:00,
2013-09-20 18:32:00,90.3,46.3,29.65,West,281,0.0,4.0,22,0.00,,,0.00,VWS V14.01,2013-09-21 01:32:00,
2013-09-20 18:35:00,90.3,46.3,29.65,WNW,290,0.0,6.0,22,0.00,,,0.00,VWS V14.01,2013-09-21 01:35:00,
2013-09-20 18:37:00,90.3,46.3,29.65,West,278,6.0,6.0,22,0.00,,,0.00,VWS V14.01,2013-09-21 01:37:00,
2013-09-20 18:40:00,90.3,46.3,29.66,WNW,289,1.0,6.0,22,0.00,,,0.00,VWS V14.01,2013-09-21 01:40:00,
2013-09-20 18:42:00,90.2,46.2,29.66,WNW,289,0.0,1.0,22,0.00,,,0.00,VWS V14.01,2013-09-21 01:42:00,
2013-09-20 18:47:00,89.9,46.0,29.66,WSW,242,0.0,3.0,22,0.00,,,0.00,VWS V14.01,2013-09-21 01:47:00,
2013-09-20 18:50:00,89.8,45.9,29.66,SW,224,6.0,6.0,22,0.00,,,0.00,VWS V14.01,2013-09-21 01:50:00,
2013-09-20 18:52:00,89.6,50.2,29.67,SSW,202,4.0,7.0,26,0.00,,,0.00,VWS V14.01,2013-09-21 01:52:00,
2013-09-20 18:55:00,89.2,51.9,29.67,SW,224,3.0,7.0,28,0.00,,,0.00,VWS V14.01,2013-09-21 01:55:00,
2013-09-20 18:57:00,88.9,52.6,29.67,SSW,202,6.0,7.0,29,0.00,,,0.00,VWS V14.01,2013-09-21 01:57:00,
2013-09-20 19:00:00,88.6,52.3,29.67,SW,230,4.0,11.0,29,0.00,,,0.00,VWS V14.01,2013-09-21 02:00:00,
2013-09-20 19:02:00,88.2,52.9,29.67,SSW,194,7.0,10.0,30,0.00,,,0.00,VWS V14.01,2013-09-21 02:02:00,
2013-09-20 19:05:00,87.8,52.5,29.67,SW,217,6.0,10.0,30,0.00,,,0.00,VWS V14.01,2013-09-21 02:05:00,
2013-09-20 19:07:00,87.5,53.2,29.67,SSW,194,6.0,7.0,31,0.00,,,0.00,VWS V14.01,2013-09-21 02:07:00,
2013-09-20 19:10:00,87.2,52.9,29.67,SSW,197,5.0,7.0,31,0.00,,,0.00,VWS V14.01,2013-09-21 02:10:00,
2013-09-20 19:12:00,86.9,53.5,29.68,SW,230,4.0,8.0,32,0.00,,,0.00,VWS V14.01,2013-09-21 02:12:00,
2013-09-20 19:15:00,86.7,53.3,29.68,WSW,244,1.0,8.0,32,0.00,,,0.00,VWS V14.01,2013-09-21 02:15:00,
2013-09-20 19:17:00,86.4,53.9,29.68,SW,225,0.0,6.0,33,0.00,,,0.00,VWS V14.01,2013-09-21 02:17:00,
2013-09-20 19:20:00,86.1,53.7,29.68,SW,226,3.0,6.0,33,0.00,,,0.00,VWS V14.01,2013-09-21 02:20:00,
2013-09-20 19:22:00,85.9,53.5,29.68,SW,228,1.0,3.0,33,0.00,,,0.00,VWS V14.01,2013-09-21 02:22:00,
2013-09-20 19:25:00,85.6,53.2,29.68,SW,227,0.0,4.0,33,0.00,,,0.00,VWS V14.01,2013-09-21 02:25:00,
2013-09-20 19:27:00,85.4,53.9,29.68,SW,227,2.0,5.0,34,0.00,,,0.00,VWS V14.01,2013-09-21 02:27:00,
2013-09-20 19:30:00,85.3,53.8,29.68,SW,227,0.0,5.0,34,0.00,,,0.00,VWS V14.01,2013-09-21 02:30:00,
2013-09-20 19:32:00,85.2,53.7,29.68,SW,227,0.0,3.0,34,0.00,,,0.00,VWS V14.01,2013-09-21 02:32:00,
2013-09-20 19:35:00,85.0,53.5,29.68,SW,227,0.0,3.0,34,0.00,,,0.00,VWS V14.01,2013-09-21 02:35:00,
2013-09-20 19:37:00,84.8,53.3,29.68,SW,228,0.0,3.0,34,0.00,,,0.00,VWS V14.01,2013-09-21 02:37:00,
2013-09-20 19:40:00,84.8,53.3,29.68,SW,228,1.0,3.0,34,0.00,,,0.00,VWS V14.01,2013-09-21 02:40:00,
2013-09-20 19:42:00,84.6,53.2,29.68,SW,228,0.0,1.0,34,0.00,,,0.00,VWS V14.01,2013-09-21 02:42:00,
2013-09-20 19:45:00,84.5,53.1,29.68,SW,228,0.0,1.0,34,0.00,,,0.00,VWS V14.01,2013-09-21 02:45:00,
2013-09-20 19:47:00,84.5,53.1,29.68,WNW,294,2.0,4.0,34,0.00,,,0.00,VWS V14.01,2013-09-21 02:47:00,
2013-09-20 19:50:00,84.4,53.8,29.68,West,265,0.0,5.0,35,0.00,,,0.00,VWS V14.01,2013-09-21 02:50:00,
2013-09-20 19:52:00,84.4,53.8,29.68,WNW,296,1.0,4.0,35,0.00,,,0.00,VWS V14.01,2013-09-21 02:52:00,
2013-09-20 19:55:00,84.3,53.7,29.68,West,281,2.0,4.0,35,0.00,,,0.00,VWS V14.01,2013-09-21 02:55:00,
2013-09-20 19:57:00,84.3,53.7,29.68,WNW,292,0.0,2.0,35,0.00,,,0.00,VWS V14.01,2013-09-21 02:57:00,
2013-09-20 20:00:00,84.2,53.6,29.68,WNW,291,2.0,2.0,35,0.00,,,0.00,VWS V14.01,2013-09-21 03:00:00,
2013-09-20 20:02:00,84.1,53.5,29.68,WNW,291,1.0,3.0,35,0.00,,,0.00,VWS V14.01,2013-09-21 03:02:00,
2013-09-20 20:07:00,84.0,53.4,29.68,WNW,292,0.0,3.0,35,0.00,,,0.00,VWS V14.01,2013-09-21 03:07:00,
2013-09-20 20:10:00,83.9,53.3,29.68,WNW,292,0.0,3.0,35,0.00,,,0.00,VWS V14.01,2013-09-21 03:10:00,
2013-09-20 20:12:00,83.8,53.3,29.68,WNW,292,0.0,1.0,35,0.00,,,0.00,VWS V14.01,2013-09-21 03:12:00,
2013-09-20 20:15:00,83.6,53.1,29.69,West,281,2.0,2.0,35,0.00,,,0.00,VWS V14.01,2013-09-21 03:15:00,
2013-09-20 20:17:00,83.5,53.0,29.69,WSW,257,2.0,5.0,35,0.00,,,0.00,VWS V14.01,2013-09-21 03:17:00,
2013-09-20 20:20:00,83.5,53.0,29.69,West,259,3.0,6.0,35,0.00,,,0.00,VWS V14.01,2013-09-21 03:20:00,
2013-09-20 20:22:00,83.4,52.9,29.69,WSW,255,1.0,4.0,35,0.00,,,0.00,VWS V14.01,2013-09-21 03:22:00,
2013-09-20 20:25:00,83.3,52.8,29.68,SW,235,0.0,6.0,35,0.00,,,0.00,VWS V14.01,2013-09-21 03:25:00,
2013-09-20 20:27:00,83.2,52.7,29.68,West,264,1.0,5.0,35,0.00,,,0.00,VWS V14.01,2013-09-21 03:27:00,
2013-09-20 20:30:00,83.2,52.7,29.69,West,264,0.0,5.0,35,0.00,,,0.00,VWS V14.01,2013-09-21 03:30:00,
2013-09-20 20:32:00,83.1,52.6,29.69,WSW,252,0.0,3.0,35,0.00,,,0.00,VWS V14.01,2013-09-21 03:32:00,
2013-09-20 20:35:00,82.9,52.5,29.69,WNW,290,0.0,3.0,35,0.00,,,0.00,VWS V14.01,2013-09-21 03:35:00,
2013-09-20 20:37:00,82.8,52.4,29.69,West,276,0.0,3.0,35,0.00,,,0.00,VWS V14.01,2013-09-21 03:37:00,
2013-09-20 20:40:00,82.7,52.3,29.69,West,275,2.0,5.0,35,0.00,,,0.00,VWS V14.01,2013-09-21 03:40:00,
2013-09-20 20:42:00,82.6,52.2,29.69,SW,219,4.0,6.0,35,0.00,,,0.00,VWS V14.01,2013-09-21 03:42:00,
2013-09-20 20:45:00,82.5,52.1,29.69,SSW,205,4.0,6.0,35,0.00,,,0.00,VWS V14.01,2013-09-21 03:45:00,
2013-09-20 20:47:00,82.4,52.8,29.69,SW,236,1.0,4.0,36,0.00,,,0.00,VWS V14.01,2013-09-21 03:47:00,
2013-09-20 20:50:00,82.3,52.7,29.69,SW,218,0.0,6.0,36,0.00,,,0.00,VWS V14.01,2013-09-21 03:50:00,
2013-09-20 20:52:00,82.3,52.7,29.69,SSW,209,5.0,6.0,36,0.00,,,0.00,VWS V14.01,2013-09-21 03:52:00,
2013-09-20 20:55:00,82.2,52.6,29.69,SSW,201,2.0,6.0,36,0.00,,,0.00,VWS V14.01,2013-09-21 03:55:00,
2013-09-20 20:57:00,82.1,52.5,29.69,SSW,205,0.0,4.0,36,0.00,,,0.00,VWS V14.01,2013-09-21 03:57:00,
2013-09-20 21:00:00,82.1,52.5,29.69,SSW,205,0.0,4.0,36,0.00,,,0.00,VWS V14.01,2013-09-21 04:00:00,
2013-09-20 21:02:00,82.1,52.5,29.69,SW,221,2.0,4.0,36,0.00,,,0.00,VWS V14.01,2013-09-21 04:02:00,
2013-09-20 21:05:00,82.1,52.5,29.69,SSW,207,2.0,4.0,36,0.00,,,0.00,VWS V14.01,2013-09-21 04:05:00,
2013-09-20 21:07:00,82.1,51.8,29.69,SSW,202,1.0,3.0,35,0.00,,,0.00,VWS V14.01,2013-09-21 04:07:00,
2013-09-20 21:10:00,82.0,52.4,29.69,SSW,202,1.0,3.0,36,0.00,,,0.00,VWS V14.01,2013-09-21 04:10:00,
2013-09-20 21:12:00,81.9,52.3,29.69,SSW,202,1.0,3.0,36,0.00,,,0.00,VWS V14.01,2013-09-21 04:12:00,
2013-09-20 21:15:00,81.9,52.3,29.69,SSW,202,0.0,3.0,36,0.00,,,0.00,VWS V14.01,2013-09-21 04:15:00,
2013-09-20 21:17:00,81.6,52.1,29.69,SSW,202,0.0,1.0,36,0.00,,,0.00,VWS V14.01,2013-09-21 04:17:00,
2013-09-20 21:20:00,81.4,51.9,29.69,SSW,202,0.0,1.0,36,0.00,,,0.00,VWS V14.01,2013-09-21 04:20:00,
2013-09-20 21:22:00,81.2,51.7,29.69,SSW,202,0.0,1.0,36,0.00,,,0.00,VWS V14.01,2013-09-21 04:22:00,
2013-09-20 21:25:00,81.1,51.7,29.70,SSW,202,1.0,1.0,36,0.00,,,0.00,VWS V14.01,2013-09-21 04:25:00,
2013-09-20 21:27:00,81.0,52.3,29.70,SSW,202,0.0,1.0,37,0.00,,,0.00,VWS V14.01,2013-09-21 04:27:00,
2013-09-20 21:30:00,81.0,52.3,29.70,SSW,202,1.0,3.0,37,0.00,,,0.00,VWS V14.01,2013-09-21 04:30:00,
2013-09-20 21:32:00,81.0,52.3,29.69,SSW,202,1.0,1.0,37,0.00,,,0.00,VWS V14.01,2013-09-21 04:32:00,
2013-09-20 21:35:00,81.0,52.3,29.69,SSW,202,1.0,3.0,37,0.00,,,0.00,VWS V14.01,2013-09-21 04:35:00,
2013-09-20 21:37:00,81.2,52.5,29.69,SSW,202,1.0,2.0,37,0.00,,,0.00,VWS V14.01,2013-09-21 04:37:00,
2013-09-20 21:40:00,81.4,52.7,29.69,SSW,203,3.0,3.0,37,0.00,,,0.00,VWS V14.01,2013-09-21 04:40:00,
2013-09-20 21:42:00,81.7,52.9,29.70,SSW,204,0.0,4.0,37,0.00,,,0.00,VWS V14.01,2013-09-21 04:42:00,
2013-09-20 21:45:00,81.7,52.9,29.70,SSW,204,0.0,4.0,37,0.00,,,0.00,VWS V14.01,2013-09-21 04:45:00,
2013-09-20 21:47:00,81.6,52.8,29.70,SSW,204,0.0,2.0,37,0.00,,,0.00,VWS V14.01,2013-09-21 04:47:00,
2013-09-20 21:50:00,81.5,52.7,29.70,SSW,204,0.0,2.0,37,0.00,,,0.00,VWS V14.01,2013-09-21 04:50:00,
2013-09-20 21:52:00,81.4,52.7,29.70,SSW,204,0.0,1.0,37,0.00,,,0.00,VWS V14.01,2013-09-21 04:52:00,
2013-09-20 21:55:00,81.2,52.5,29.70,SSW,204,0.0,1.0,37,0.00,,,0.00,VWS V14.01,2013-09-21 04:55:00,
2013-09-20 21:58:00,81.1,52.4,29.70,SSW,204,0.0,0.0,37,0.00,,,0.00,VWS V14.01,2013-09-21 04:58:00,
2013-09-20 22:00:00,80.9,52.2,29.70,SSW,204,0.0,0.0,37,0.00,,,0.00,VWS V14.01,2013-09-21 05:00:00,
2013-09-20 22:03:00,80.9,52.2,29.70,SSW,204,0.0,0.0,37,0.00,,,0.00,VWS V14.01,2013-09-21 05:03:00,
2013-09-20 22:05:00,81.0,52.3,29.70,SSW,204,0.0,0.0,37,0.00,,,0.00,VWS V14.01,2013-09-21 05:05:00,
2013-09-20 22:08:00,80.9,52.2,29.70,SSW,204,0.0,0.0,37,0.00,,,0.00,VWS V14.01,2013-09-21 05:08:00,
2013-09-20 22:10:00,80.6,52.0,29.70,SSW,204,0.0,0.0,37,0.00,,,0.00,VWS V14.01,2013-09-21 05:10:00,
2013-09-20 22:13:00,80.4,52.5,29.70,SSW,204,0.0,0.0,38,0.00,,,0.00,VWS V14.01,2013-09-21 05:13:00,
2013-09-20 22:15:00,80.0,52.1,29.70,SSW,204,0.0,0.0,38,0.00,,,0.00,VWS V14.01,2013-09-21 05:15:00,
2013-09-20 22:18:00,79.8,52.7,29.71,SSW,204,0.0,0.0,39,0.00,,,0.00,VWS V14.01,2013-09-21 05:18:00,
2013-09-20 22:20:00,79.8,52.7,29.71,SSW,204,0.0,0.0,39,0.00,,,0.00,VWS V14.01,2013-09-21 05:20:00,
2013-09-20 22:23:00,79.9,52.8,29.71,SSW,204,0.0,0.0,39,0.00,,,0.00,VWS V14.01,2013-09-21 05:23:00,
2013-09-20 22:25:00,79.8,52.7,29.71,SSW,204,0.0,0.0,39,0.00,,,0.00,VWS V14.01,2013-09-21 05:25:00,
2013-09-20 22:28:00,79.6,53.2,29.71,SW,236,1.0,2.0,40,0.00,,,0.00,VWS V14.01,2013-09-21 05:28:00,
2013-09-20 22:30:00,79.8,53.4,29.71,SW,236,0.0,2.0,40,0.00,,,0.00,VWS V14.01,2013-09-21 05:30:00,
2013-09-20 22:33:00,79.8,53.4,29.71,SW,235,0.0,1.0,40,0.00,,,0.00,VWS V14.01,2013-09-21 05:33:00,
2013-09-20 22:35:00,79.9,53.5,29.71,SW,215,5.0,6.0,40,0.00,,,0.00,VWS V14.01,2013-09-21 05:35:00,
2013-09-20 22:38:00,80.2,53.7,29.71,SW,221,3.0,8.0,40,0.00,,,0.00,VWS V14.01,2013-09-21 05:38:00,
2013-09-20 22:40:00,80.2,53.7,29.71,WSW,240,0.0,8.0,40,0.00,,,0.00,VWS V14.01,2013-09-21 05:40:00,
2013-09-20 22:43:00,80.1,53.6,29.71,West,259,0.0,2.0,40,0.00,,,0.00,VWS V14.01,2013-09-21 05:43:00,
2013-09-20 22:45:00,80.2,53.7,29.71,SW,223,0.0,5.0,40,0.00,,,0.00,VWS V14.01,2013-09-21 05:45:00,
2013-09-20 22:48:00,80.2,53.7,29.71,WSW,244,0.0,3.0,40,0.00,,,0.00,VWS V14.01,2013-09-21 05:48:00,
2013-09-20 22:50:00,80.1,54.3,29.71,West,268,4.0,4.0,41,0.00,,,0.00,VWS V14.01,2013-09-21 05:50:00,
2013-09-20 22:53:00,79.9,54.1,29.71,SW,221,1.0,5.0,41,0.00,,,0.00,VWS V14.01,2013-09-21 05:53:00,
2013-09-20 22:55:00,79.8,54.0,29.71,SSW,212,3.0,6.0,41,0.00,,,0.00,VWS V14.01,2013-09-21 05:55:00,
2013-09-20 22:58:00,79.7,54.6,29.71,SSW,212,3.0,7.0,42,0.00,,,0.00,VWS V14.01,2013-09-21 05:58:00,
2013-09-20 23:00:00,79.7,54.6,29.71,WSW,237,2.0,7.0,42,0.00,,,0.00,VWS V14.01,2013-09-21 06:00:00,
2013-09-20 23:03:00,79.6,54.5,29.71,SW,222,6.0,9.0,42,0.00,,,0.00,VWS V14.01,2013-09-21 06:03:00,
2013-09-20 23:05:00,79.5,54.4,29.71,SW,236,2.0,10.0,42,0.00,,,0.00,VWS V14.01,2013-09-21 06:05:00,
2013-09-20 23:08:00,79.4,54.3,29.71,SW,217,4.0,7.0,42,0.00,,,0.00,VWS V14.01,2013-09-21 06:08:00,
2013-09-20 23:10:00,79.4,54.3,29.71,WSW,246,3.0,7.0,42,0.00,,,0.00,VWS V14.01,2013-09-21 06:10:00,
2013-09-20 23:13:00,79.4,55.0,29.71,SW,218,3.0,10.0,43,0.00,,,0.00,VWS V14.01,2013-09-21 06:13:00,
2013-09-20 23:15:00,79.2,54.8,29.71,SW,214,4.0,10.0,43,0.00,,,0.00,VWS V14.01,2013-09-21 06:15:00,
2013-09-20 23:18:00,79.1,54.7,29.71,SW,215,4.0,7.0,43,0.00,,,0.00,VWS V14.01,2013-09-21 06:18:00,
2013-09-20 23:20:00,79.0,54.6,29.71,West,262,0.0,7.0,43,0.00,,,0.00,VWS V14.01,2013-09-21 06:20:00,
2013-09-20 23:23:00,78.8,55.1,29.71,SSW,212,6.0,8.0,44,0.00,,,0.00,VWS V14.01,2013-09-21 06:23:00,
2013-09-20 23:25:00,78.6,54.9,29.71,West,262,2.0,8.0,44,0.00,,,0.00,VWS V14.01,2013-09-21 06:25:00,
2013-09-20 23:28:00,78.4,55.3,29.71,SW,221,1.0,7.0,45,0.00,,,0.00,VWS V14.01,2013-09-21 06:28:00,
2013-09-20 23:30:00,78.3,55.2,29.71,West,262,1.0,7.0,45,0.00,,,0.00,VWS V14.01,2013-09-21 06:30:00,
2013-09-20 23:33:00,78.2,55.1,29.71,SW,219,5.0,5.0,45,0.00,,,0.00,VWS V14.01,2013-09-21 06:33:00,
2013-09-20 23:35:00,78.1,55.0,29.71,SW,234,1.0,6.0,45,0.00,,,0.00,VWS V14.01,2013-09-21 06:35:00,
2013-09-20 23:38:00,78.0,55.0,29.71,SW,227,0.0,7.0,45,0.00,,,0.00,VWS V14.01,2013-09-21 06:38:00,
2013-09-20 23:40:00,77.8,55.4,29.71,SSW,209,5.0,7.0,46,0.00,,,0.00,VWS V14.01,2013-09-21 06:40:00,
2013-09-20 23:43:00,77.7,55.3,29.71,WSW,237,1.0,5.0,46,0.00,,,0.00,VWS V14.01,2013-09-21 06:43:00,
2013-09-20 23:45:00,77.5,55.1,29.71,SW,236,1.0,5.0,46,0.00,,,0.00,VWS V14.01,2013-09-21 06:45:00,
2013-09-20 23:48:00,77.3,54.9,29.71,WSW,237,2.0,3.0,46,0.00,,,0.00,VWS V14.01,2013-09-21 06:48:00,
2013-09-20 23:50:00,77.2,55.4,29.71,WSW,244,2.0,3.0,47,0.00,,,0.00,VWS V14.01,2013-09-21 06:50:00,
2013-09-20 23:53:00,77.1,55.3,29.71,WSW,241,0.0,3.0,47,0.00,,,0.00,VWS V14.01,2013-09-21 06:53:00,
2013-09-20 23:55:00,77.0,55.2,29.70,WSW,248,2.0,5.0,47,0.00,,,0.00,VWS V14.01,2013-09-21 06:55:00,
2013-09-20 23:58:00,77.0,55.2,29.70,SW,232,0.0,5.0,47,0.00,,,0.00,VWS V14.01,2013-09-21 06:58:00,